Location: *
(48.4333°N, 5.0333°W)
Time: 11:25:37
(UTC+00:00)

Cosmos 2218 Rocket - Pass Details

Date: 09 April 2020
Orbit: 957 x 1005 km, 82.9° (Epoch: 03 June)

Event Time Altitude Azimuth Distance (km) Brightness Sun altitude
Rises 20:54:16 0° 351° (N) 3,667 7.7 -17.6°
Reaches altitude 10° 20:56:46 10° 352° (N) 2,722 6.9 -17.9°
Maximum altitude 21:03:01 83° 81° (E) 991 3.9 -18.8°
Enters shadow 21:07:10 23° 168° (SSE) 1,954 5.2 -19.3°
